Location: Sungai Buloh
(3.1000°N, 113.0000°E)
Time: 22:18:32
(UTC+00:00)

Cosmos 1023 Rocket - Pass Details

Date: 12 January 2026
Orbit: 731 x 768 km, 74.1° (Epoch: 11 February)

Event Time Altitude Azimuth Distance (km) Brightness Sun altitude
Rises 21:54:33 0° 196° (SSW) 3,154 7.8 -10.9°
Reaches altitude 10° 21:56:55 10° 197° (SSW) 2,228 7.0 -10.3°
Maximum altitude 22:01:56 75° 282° (WNW) 758 4.3 -9.2°
Drops below altitude 10° 22:06:56 10° 7° (N) 2,220 6.8 -8.0°
Sets 22:09:17 0° 9° (N) 3,141 7.5 -7.5°
